When you browse on this site, cookies collect data to enhance your experience and personalize the content and advertising you see.
Visit our Privacy Policy to learn more. By continuing to use the site, you agree to this use of cookies and data.
  • In Czech Republic
  • List of Countries
  • For 7 days
  • Water Temperature
  • Satellite Maps
  • Weather Map
  • Weather Widgets
  • user-avatar
    Login

    Hourly Weather Mesquite

    Today, 18 February, Monday

    Time Temperature Precipitation Wind Pressure Humidity
    00:00 +5°C° 0 mm 4 mps 752 mmHg 52%
    01:00 +5°C° 0 mm 5 mps 752 mmHg 52%
    02:00 +3°C° 0 mm 5 mps 753 mmHg 52%
    03:00 +3°C° 0 mm 5 mps 753 mmHg 52%
    04:00 +2°C° 0 mm 5 mps 754 mmHg 53%
    05:00 +1°C° 0 mm 5 mps 754 mmHg 54%
    06:00 0°C° 0 mm 4 mps 755 mmHg 58%
    07:00 0°C° 0 mm 4 mps 755 mmHg 56%
    08:00 0°C° 0 mm 5 mps 756 mmHg 54%
    09:00 -1°C° 0 mm 6 mps 756 mmHg 52%
    10:00 +2°C° 0 mm 5 mps 756 mmHg 50%
    11:00 +3°C° 0 mm 5 mps 756 mmHg 47%
    12:00 +5°C° 0 mm 5 mps 756 mmHg 44%
    13:00 +6°C° 0 mm 5 mps 756 mmHg 44%
    14:00 +7°C° 0 mm 5 mps 756 mmHg 44%
    15:00 +8°C° 0 mm 5 mps 755 mmHg 44%
    16:00 +7°C° 0 mm 4 mps 755 mmHg 47%
    17:00 +7°C° 0 mm 4 mps 755 mmHg 49%
    18:00 +7°C° 0 mm 4 mps 755 mmHg 52%
    19:00 +6°C° 0 mm 4 mps 755 mmHg 53%
    20:00 +6°C° 0 mm 4 mps 756 mmHg 55%
    21:00 +6°C° 0 mm 5 mps 756 mmHg 57%
    22:00 +5°C° 0 mm 5 mps 756 mmHg 57%
    23:00 +5°C° 0 mm 5 mps 756 mmHg 57%

    Tomorrow, 19 February, Tuesday

    Time Temperature Precipitation Wind Pressure Humidity
    00:00 +3°C° 0 mm 5 mps 755 mmHg 58%
    01:00 +3°C° 0 mm 5 mps 755 mmHg 59%
    02:00 +2°C° 0 mm 6 mps 754 mmHg 60%
    03:00 +2°C° 0 mm 6 mps 754 mmHg 62%
    04:00 +2°C° 0 mm 6 mps 754 mmHg 63%
    05:00 +2°C° 0 mm 5 mps 753 mmHg 64%
    06:00 +2°C° 0 mm 5 mps 753 mmHg 65%
    07:00 +2°C° 0.4 mm 5 mps 753 mmHg 70%
    08:00 +2°C° 0.4 mm 5 mps 753 mmHg 75%
    09:00 +2°C° 0.4 mm 5 mps 753 mmHg 81%
    10:00 +2°C° 0.6 mm 5 mps 752 mmHg 83%
    11:00 +2°C° 0.6 mm 5 mps 752 mmHg 85%
    12:00 +2°C° 0.6 mm 5 mps 751 mmHg 87%
    13:00 +3°C° 0.9 mm 4 mps 750 mmHg 88%
    14:00 +3°C° 0.9 mm 4 mps 749 mmHg 89%
    15:00 +3°C° 0.9 mm 3 mps 748 mmHg 90%
    16:00 +4°C° 0.2 mm 3 mps 747 mmHg 89%
    17:00 +4°C° 0.2 mm 3 mps 747 mmHg 89%
    18:00 +5°C° 0.2 mm 2 mps 747 mmHg 89%
    19:00 +4°C° 0.1 mm 3 mps 746 mmHg 90%
    20:00 +4°C° 0.1 mm 4 mps 746 mmHg 91%
    21:00 +4°C° 0.1 mm 4 mps 746 mmHg 92%
    22:00 +4°C° 0.1 mm 3 mps 746 mmHg 91%
    23:00 +4°C° 0.1 mm 3 mps 746 mmHg 91%

    Day after tomorrow, 20 February, Wednesday

    Time Temperature Precipitation Wind Pressure Humidity
    00:00 +6°C° 0.1 mm 2 mps 746 mmHg 91%
    01:00 +6°C° 0 mm 2 mps 746 mmHg 91%
    02:00 +7°C° 0 mm 1 mps 746 mmHg 90%
    03:00 +7°C° 0 mm 1 mps 745 mmHg 90%
    04:00 +5°C° 0 mm 2 mps 745 mmHg 91%
    05:00 +5°C° 0 mm 2 mps 746 mmHg 91%
    06:00 +4°C° 0 mm 3 mps 746 mmHg 91%
    07:00 +5°C° 0 mm 3 mps 746 mmHg 87%
    08:00 +5°C° 0 mm 3 mps 746 mmHg 82%
    09:00 +7°C° 0 mm 2 mps 747 mmHg 78%
    10:00 +9°C° 0 mm 3 mps 747 mmHg 66%
    11:00 +11°C° 0 mm 3 mps 747 mmHg 55%
    12:00 +13°C° 0 mm 4 mps 747 mmHg 43%
    13:00 +14°C° 0 mm 4 mps 746 mmHg 39%
    14:00 +15°C° 0 mm 4 mps 746 mmHg 35%
    15:00 +17°C° 0 mm 4 mps 745 mmHg 30%
    16:00 +16°C° 0 mm 3 mps 746 mmHg 32%
    17:00 +15°C° 0 mm 2 mps 746 mmHg 33%
    18:00 +14°C° 0 mm 1 mps 746 mmHg 35%
    19:00 +14°C° 0 mm 1 mps 747 mmHg 36%
    20:00 +13°C° 0 mm 1 mps 747 mmHg 37%
    21:00 +12°C° 0 mm 1 mps 748 mmHg 37%
    22:00 +12°C° 0 mm 1 mps 748 mmHg 39%
    23:00 +11°C° 0 mm 1 mps 748 mmHg 42%

    21 February, Thursday

    Time Temperature Precipitation Wind Pressure Humidity
    00:00 +11°C° 0 mm 1 mps 748 mmHg 44%
    01:00 +11°C° 0 mm 1 mps 748 mmHg 46%
    02:00 +10°C° 0 mm 1 mps 748 mmHg 48%
    03:00 +9°C° 0 mm 2 mps 748 mmHg 50%
    04:00 +9°C° 0 mm 2 mps 749 mmHg 52%
    05:00 +8°C° 0 mm 2 mps 749 mmHg 53%
    06:00 +8°C° 0 mm 2 mps 749 mmHg 54%
    07:00 +9°C° 0 mm 2 mps 750 mmHg 55%
    08:00 +9°C° 0 mm 3 mps 750 mmHg 55%
    09:00 +10°C° 0 mm 3 mps 750 mmHg 55%
    10:00 +11°C° 0 mm 4 mps 750 mmHg 53%
    11:00 +12°C° 0 mm 4 mps 750 mmHg 51%
    12:00 +14°C° 0 mm 4 mps 750 mmHg 49%
    13:00 +13°C° 0 mm 4 mps 750 mmHg 50%
    14:00 +13°C° 0 mm 5 mps 749 mmHg 51%
    15:00 +13°C° 0 mm 5 mps 748 mmHg 52%
    16:00 +12°C° 0 mm 5 mps 748 mmHg 58%
    17:00 +12°C° 0 mm 5 mps 748 mmHg 64%
    18:00 +10°C° 0 mm 5 mps 748 mmHg 70%
    19:00 +11°C° 0 mm 4 mps 749 mmHg 74%
    20:00 +11°C° 0 mm 3 mps 749 mmHg 79%
    21:00 +10°C° 0 mm 3 mps 749 mmHg 83%
    22:00 +10°C° 0 mm 3 mps 749 mmHg 85%
    23:00 +10°C° 0 mm 4 mps 749 mmHg 86%

    22 February, Friday

    Time Temperature Precipitation Wind Pressure Humidity
    00:00 +10°C° 0 mm 4 mps 749 mmHg 88%
    01:00 +10°C° 0 mm 4 mps 749 mmHg 89%
    02:00 +10°C° 0 mm 4 mps 749 mmHg 90%
    03:00 +10°C° 0 mm 4 mps 748 mmHg 91%
    04:00 +10°C° 0.1 mm 4 mps 748 mmHg 92%
    05:00 +11°C° 0.1 mm 3 mps 748 mmHg 93%
    06:00 +11°C° 0.1 mm 3 mps 749 mmHg 94%
    07:00 +11°C° 0.1 mm 3 mps 749 mmHg 94%
    08:00 +11°C° 0.1 mm 3 mps 749 mmHg 94%
    09:00 +12°C° 0.1 mm 3 mps 749 mmHg 94%
    10:00 +12°C° 0.3 mm 3 mps 749 mmHg 94%
    11:00 +12°C° 0.3 mm 3 mps 749 mmHg 94%
    12:00 +13°C° 0.3 mm 3 mps 749 mmHg 94%
    13:00 +14°C° 1.5 mm 2 mps 748 mmHg 95%
    14:00 +14°C° 1.5 mm 2 mps 747 mmHg 96%
    15:00 +15°C° 1.5 mm 2 mps 746 mmHg 97%
    16:00 +15°C° 0.3 mm 2 mps 746 mmHg 97%
    17:00 +15°C° 0.3 mm 2 mps 746 mmHg 97%
    18:00 +14°C° 0.3 mm 3 mps 746 mmHg 97%
    19:00 +15°C° 1.7 mm 2 mps 746 mmHg 98%
    20:00 +15°C° 1.7 mm 2 mps 746 mmHg 98%
    21:00 +16°C° 1.7 mm 2 mps 747 mmHg 98%
    22:00 +16°C° 0.6 mm 2 mps 746 mmHg 98%
    23:00 +16°C° 0.6 mm 2 mps 746 mmHg 98%

    23 February, Saturday

    Time Temperature Precipitation Wind Pressure Humidity
    00:00 +17°C° 0.6 mm 2 mps 746 mmHg 98%
    01:00 +17°C° 0.2 mm 2 mps 745 mmHg 98%
    02:00 +18°C° 0.2 mm 3 mps 745 mmHg 98%
    03:00 +18°C° 0.2 mm 3 mps 745 mmHg 98%
    04:00 +18°C° 0.7 mm 3 mps 744 mmHg 98%
    05:00 +19°C° 0.7 mm 4 mps 744 mmHg 97%
    06:00 +19°C° 0.7 mm 4 mps 743 mmHg 97%
    07:00 +19°C° 2.2 mm 5 mps 743 mmHg 97%
    08:00 +20°C° 2.2 mm 5 mps 743 mmHg 96%
    09:00 +20°C° 2.2 mm 6 mps 743 mmHg 95%
    10:00 +21°C° 1.4 mm 7 mps 742 mmHg 93%
    11:00 +21°C° 1.4 mm 8 mps 742 mmHg 90%
    12:00 +22°C° 1.4 mm 8 mps 742 mmHg 87%
    13:00 +23°C° 0.4 mm 8 mps 741 mmHg 71%
    14:00 +26°C° 0.4 mm 8 mps 741 mmHg 55%
    15:00 +28°C° 0.4 mm 7 mps 740 mmHg 39%
    16:00 +26°C° 0 mm 8 mps 741 mmHg 38%
    17:00 +23°C° 0 mm 8 mps 741 mmHg 36%
    18:00 +22°C° 0 mm 8 mps 742 mmHg 35%
    19:00 +20°C° 0 mm 8 mps 742 mmHg 32%
    20:00 +18°C° 0 mm 7 mps 743 mmHg 30%
    21:00 +17°C° 0 mm 7 mps 744 mmHg 27%
    22:00 +16°C° 0 mm 6 mps 744 mmHg 28%
    23:00 +15°C° 0 mm 6 mps 745 mmHg 28%
    Show more